Weather History for Boonville, MO

Change the Weather History Date:

Monday, December 31, 2012

  Actual Average Record
Temperature  
Mean Temperature 32 °F -  
Max Temperature 39 °F 35 °F 72 °F (1965)
Min Temperature 25 °F 17 °F -9 °F (1976)
Degree Days  
Heating Degree Days 33    
Moisture  
Dew Point 27 °F    
Average Humidity 82    
Maximum Humidity 100    
Minimum Humidity 36    
Precipitation  
Precipitation 0.17 in - - ()
Sea Level Pressure  
Sea Level Pressure 30.13 in    
Wind  
Wind Speed 3 mph (NNW)    
Max Wind Speed 13 mph    
Max Gust Speed 23 mph    
Visibility 5 miles    
Events Rain , Snow    
Averages and records for this station are not official NWS values.
T = Trace of Precipitation, MM = Missing Value Source: NWS Daily Summary

Daily Weather History Graph

Daily Weather History Graph

Search for Another Location

Airport:

Trip Planner

Search our weather history database for the weather conditions in past years. The results will help you decide how hot, cold, wet, or windy it might be!

Date:

Astronomy

Dec. 31, 2012 Rise Set
Actual Time 7:29 AM CST 4:58 PM CST
Civil Twilight 6:59 AM CST 5:28 PM CST
Nautical Twilight 6:26 AM CST 6:02 PM CST
Astronomical Twilight 5:53 AM CST 6:34 PM CST
Moon 8:27 PM CST (12/31) 9:13 AM CST (12/31)
Length of Visible Light 10h 29m
Length of Day
9h 29m
Waning Gibbous, 90% of the Moon is Illuminated
Dec 31
Waning Gibbous
Jan 4
Last Quarter
Jan 11
New
Jan 18
First Quarter
Jan 26
Full

Hourly Weather History & Observations

Time (CST) Temp. Windchill Dew Point Humidity Pressure Visibility Wind Dir Wind Speed Gust Speed Precip Events Conditions
12:15 AM 38.7 °F 35.2 °F 16.9 °F 41% 30.18 in 10.0 mi SSW 4.6 mph - N/A   Clear
12:35 AM 39.2 °F - 15.8 °F 39% 30.17 in 10.0 mi Calm Calm - N/A   Clear
12:55 AM 39.4 °F - 15.1 °F 37% 30.17 in 10.0 mi Calm Calm - N/A   Clear
1:15 AM 39.2 °F - 14.7 °F 37% 30.16 in 10.0 mi Calm Calm - N/A   Clear
1:35 AM 39.4 °F - 14.5 °F 36% 30.15 in 10.0 mi Calm Calm - N/A   Clear
1:55 AM 39.4 °F - 14.7 °F 37% 30.16 in 10.0 mi Calm Calm - N/A   Clear
2:15 AM 39.4 °F - 14.9 °F 37% 30.17 in 10.0 mi Calm Calm - N/A   Clear
2:35 AM 39.2 °F 32.5 °F 15.8 °F 39% 30.16 in 10.0 mi SW 10.4 mph 17.3 mph N/A   Mostly Cloudy
2:55 AM 39.2 °F 33.0 °F 16.7 °F 40% 30.16 in 10.0 mi SW 9.2 mph - N/A   Overcast
3:15 AM 39.2 °F 34.2 °F 17.4 °F 41% 30.16 in 10.0 mi SW 6.9 mph - N/A   Overcast
3:35 AM 38.8 °F - 18.1 °F 43% 30.15 in 10.0 mi Calm Calm - N/A   Overcast
3:55 AM 39.0 °F - 18.3 °F 43% 30.15 in 10.0 mi Calm Calm - N/A   Overcast
4:15 AM 38.8 °F - 18.7 °F 44% 30.15 in 10.0 mi Calm Calm - N/A   Overcast
4:35 AM 38.8 °F - 19.0 °F 45% 30.15 in 10.0 mi Calm Calm - N/A   Overcast
4:55 AM 38.7 °F 30.9 °F 21.0 °F 49% 30.16 in 10.0 mi WSW 12.7 mph 23.0 mph N/A   Overcast
5:15 AM 38.1 °F 35.7 °F 23.4 °F 55% 30.15 in 10.0 mi SW 3.5 mph - N/A   Overcast
5:35 AM 38.1 °F 32.9 °F 21.4 °F 51% 30.15 in 10.0 mi WSW 6.9 mph - N/A   Overcast
5:55 AM 38.3 °F - 20.1 °F 48% 30.15 in 10.0 mi Calm Calm - N/A   Overcast
6:15 AM 37.9 °F - 21.2 °F 51% 30.14 in 10.0 mi Calm Calm - N/A   Overcast
6:35 AM 36.9 °F 28.7 °F 23.2 °F 58% 30.14 in 10.0 mi WSW 12.7 mph 19.6 mph N/A   Overcast
6:55 AM 35.6 °F 28.6 °F 26.2 °F 69% 30.15 in 4.0 mi WSW 9.2 mph 16.1 mph N/A Snow Light Snow
7:15 AM 33.1 °F 28.7 °F 30.4 °F 90% 30.15 in 1.5 mi SW 4.6 mph - N/A Snow Light Snow
7:35 AM 32.4 °F 29.1 °F 32.0 °F 99% 30.15 in 1.5 mi SSW 3.5 mph - N/A Snow Light Snow
7:55 AM 32.2 °F 28.9 °F 32.0 °F 99% 30.15 in 0.5 mi South 3.5 mph - 0.01 in Snow Snow
8:15 AM 32.2 °F 28.9 °F 32.0 °F 99% 30.15 in 0.5 mi South 3.5 mph - 0.01 in Snow Snow
8:35 AM 32.2 °F - 32.0 °F 99% 30.14 in 0.5 mi Calm Calm - 0.02 in Snow Snow
8:55 AM 32.2 °F - 32.0 °F 99% 30.14 in 0.5 mi Calm Calm - 0.04 in Snow Light Snow
9:15 AM 32.4 °F - 32.2 °F 99% 30.15 in 0.5 mi Calm Calm - 0.01 in Snow Light Snow
9:35 AM 32.5 °F - 32.4 °F 99% 30.15 in 0.5 mi Calm Calm - 0.03 in Snow Light Snow
9:55 AM 32.7 °F - 32.7 °F 100% 30.15 in 0.5 mi Calm Calm - 0.04 in Snow Light Snow
10:15 AM 32.9 °F - 32.9 °F 100% 30.16 in 0.5 mi Calm Calm - 0.02 in Snow Snow
10:35 AM 32.9 °F - 32.9 °F 100% 30.16 in 0.5 mi Calm Calm - 0.04 in Snow Light Snow
10:55 AM 32.9 °F - 32.9 °F 100% 30.16 in 0.8 mi Calm Calm - 0.05 in Snow Light Snow
11:15 AM 32.9 °F - 32.9 °F 100% 30.15 in 0.8 mi Calm Calm - N/A Snow Light Snow
11:35 AM 32.9 °F - 32.9 °F 100% 30.15 in 0.8 mi Calm Calm - 0.01 in Snow Light Snow
11:55 AM 33.3 °F - 33.1 °F 99% 30.13 in 0.8 mi Calm Calm - 0.02 in Snow Light Snow
12:15 PM 33.6 °F - 33.3 °F 99% 30.11 in 1.2 mi Calm Calm - 0.01 in   Overcast
12:35 PM 33.8 °F - 33.4 °F 99% 30.12 in 2.5 mi Calm Calm - 0.01 in Rain Light Rain
12:55 PM 33.8 °F - 33.3 °F 98% 30.10 in 2.0 mi Calm Calm - 0.01 in Snow Light Snow
1:15 PM 34.0 °F - 33.4 °F 98% 30.09 in 4.0 mi Calm Calm - N/A Rain Light Rain
1:35 PM 34.0 °F - 33.3 °F 97% 30.08 in 3.0 mi Calm Calm - N/A Rain Light Rain
1:55 PM 34.0 °F - 33.4 °F 98% 30.08 in 2.5 mi Calm Calm - N/A Snow Light Snow
2:15 PM 34.2 °F - 33.4 °F 97% 30.08 in 4.0 mi Calm Calm - N/A Rain Light Rain
2:35 PM 34.2 °F 31.2 °F 33.3 °F 97% 30.07 in 3.0 mi NNW 3.5 mph - N/A Snow Light Snow
2:55 PM 34.0 °F 31.0 °F 33.1 °F 96% 30.06 in 4.0 mi North 3.5 mph - N/A Snow Light Snow
3:15 PM 33.8 °F 29.6 °F 32.9 °F 96% 30.07 in 5.0 mi North 4.6 mph - N/A Rain Light Rain
3:35 PM 33.8 °F 28.6 °F 32.9 °F 96% 30.07 in 5.0 mi North 5.8 mph - N/A Snow Light Snow
3:55 PM 33.6 °F 29.4 °F 32.9 °F 97% 30.07 in 5.0 mi NNE 4.6 mph - N/A Snow Light Snow
4:15 PM 33.3 °F 30.2 °F 32.5 °F 97% 30.08 in 3.0 mi North 3.5 mph - N/A Snow Light Snow
4:35 PM 33.1 °F 30.0 °F 32.5 °F 98% 30.07 in 2.0 mi North 3.5 mph - N/A Snow Light Snow
4:55 PM 32.9 °F 27.5 °F 32.4 °F 98% 30.06 in 1.0 mi North 5.8 mph - N/A Snow Light Snow
5:15 PM 32.7 °F 29.6 °F 32.4 °F 99% 30.08 in 2.0 mi NNE 3.5 mph - N/A Snow Light Snow
5:35 PM 32.5 °F 29.3 °F 32.4 °F 99% 30.08 in 3.0 mi NNE 3.5 mph - N/A Snow Light Snow
5:55 PM 32.4 °F - 32.4 °F 100% 30.08 in 2.5 mi Calm Calm - N/A Snow Light Snow
6:15 PM 32.4 °F - 32.4 °F 100% 30.08 in 1.5 mi Calm Calm - N/A Snow Light Snow
6:35 PM 32.4 °F - 32.4 °F 100% 30.09 in 2.0 mi Calm Calm - N/A Snow Light Snow
6:55 PM 32.4 °F - 32.4 °F 100% 30.09 in 1.2 mi Calm Calm - N/A Snow Light Snow
7:15 PM 32.4 °F - 32.4 °F 100% 30.09 in 1.8 mi Calm Calm - N/A Snow Light Snow
7:35 PM 32.2 °F 28.9 °F 32.2 °F 100% 30.09 in 2.0 mi North 3.5 mph - N/A Snow Light Snow
7:55 PM 32.2 °F 25.8 °F 32.2 °F 100% 30.09 in 2.5 mi North 6.9 mph - N/A Snow Light Snow
8:15 PM 31.8 °F 23.3 °F 31.8 °F 100% 30.09 in 5.0 mi NNE 10.4 mph - N/A   Overcast
8:35 PM 30.4 °F 22.2 °F 30.4 °F 100% 30.09 in 4.0 mi North 9.2 mph - N/A Snow Light Snow
8:55 PM 29.3 °F 20.2 °F 29.1 °F 99% 30.11 in 4.0 mi North 10.4 mph - N/A Snow Light Snow
9:15 PM 28.2 °F 18.3 °F 27.5 °F 97% 30.11 in 4.0 mi North 11.5 mph - N/A Snow Light Snow
9:35 PM 27.1 °F 17.5 °F 25.7 °F 94% 30.12 in 3.0 mi North 10.4 mph - N/A Snow Light Snow
9:55 PM 26.6 °F 16.8 °F 24.4 °F 92% 30.13 in 5.0 mi NNE 10.4 mph - N/A Snow Light Snow
10:15 PM 26.1 °F 16.2 °F 23.5 °F 90% 30.13 in 5.0 mi NNE 10.4 mph - N/A Snow Light Snow
10:35 PM 25.7 °F 17.1 °F 23.5 °F 92% 30.14 in 5.0 mi North 8.1 mph - N/A Snow Light Snow
10:55 PM 25.7 °F 16.4 °F 23.4 °F 91% 30.14 in 7.0 mi North 9.2 mph - N/A   Overcast
11:15 PM 25.7 °F 17.1 °F 23.0 °F 89% 30.15 in 7.0 mi NNE 8.1 mph - N/A   Overcast
11:35 PM 25.7 °F 18.0 °F 23.0 °F 89% 30.16 in 10.0 mi North 6.9 mph - N/A   Overcast
11:55 PM 25.7 °F 15.7 °F 22.8 °F 89% 30.15 in 10.0 mi NNE 10.4 mph - N/A   Overcast